Location: Asheville, NC
(35.6000°N, 82.5500°W)
Time: 06:37:56
(UTC-05:00)

N. Korean satellite - Pass Details

Date: 15 December 2017
Orbit: 459 x 515 km, 97.2° (Epoch: 17 January)

Event Time Altitude Azimuth Distance (km) Brightness Sun altitude
Rises 06:57:11 0° 16° (NNE) 2,609 10.2 -7.3°
Reaches altitude 10° 06:59:19 10° 21° (NNE) 1,711 9.3 -6.9°
Maximum altitude 07:02:56 53° 100° (E) 612 7.6 -6.2°
Drops below altitude 10° 07:06:27 10° 178° (S) 1,668 9.7 -5.6°
Sets 07:08:31 0° 183° (S) 2,533 10.5 -5.2°
